Regional Weather Roundup
Issued by NWS

Home | Current Version | Previous Version | Graphics & Text | Print | Product List | Glossary On
Versions: 1 2 3 4 5 6 7 8 9 10 11 12 13 14 15 16 17 18 19 20 21 22 23 24 25 26 27 28 29 30 31 32 33 34 35 36 37 38 39 40 41 42 43 44 45 46 47 48 49 50
000
ASUS45 KABQ 250910
RWRNM
WEATHER ROUNDUP FOR NEW MEXICO
NATIONAL WEATHER SERVICE ALBUQUERQUE NM
300 AM MDT FRI JUL 25 2014

NOTE: "FAIR" MEANS FEW OR NO CLOUDS BELOW 12,000 FEET AGL WITH NO
       SIGNIFICANT WEATHER OR OBSTRUCTIONS TO VISION.

      THIS PRODUCT IS RELEASED AS TWO VERSIONS.  ONE VERSION NEAR
      THE TOP OF THE HOUR CONTAINING PRELIMINARY DATA FROM ALBUQUERQUE
      AND OTHER STATIONS.  A FINAL VERSION WITH ADDITIONAL DATA IS
      ISSUED ABOUT 10 MINUTES AFTER THE HOUR.

NMZ501-503-504-510>518-251000-
NORTHWEST PLATEAU/NORTHCENTRAL MOUNTAINS

CITY           SKY/WX    TMP DP  RH WIND       PRES   REMARKS
FARMINGTON     CLEAR     74  51  44 SE9       30.17F
LOS ALAMOS     PTCLDY    72  38  29 S3        30.32F
SANTA FE       PTCLDY    64  45  49 NW3       30.26F
TAOS           PTCLDY    61  39  44 CALM      30.33F
ANGEL FIRE     FAIR      47  40  75 CALM      30.43F

$$
NMZ402-403-502-505>509-251000-
WESTCENTRAL MOUNTAINS/SOUTHWEST MOUNTAINS

CITY           SKY/WX    TMP DP  RH WIND       PRES   REMARKS
GALLUP         CLOUDY    64  45  49 CALM      30.29F
GRANTS         PTCLDY    64  44  49 CALM      30.31S
SILVER CITY    CLEAR     66  41  39 N5        30.24S

$$
NMZ407-409-411-412-251000-
SOUTHERN DESERTS

CITY           SKY/WX    TMP DP  RH WIND       PRES   REMARKS
LORDSBURG      FAIR      68  41  37 SW7       30.11F
DEMING         CLEAR     75  47  36 N5        30.12F
LAS CRUCES     CLEAR     79  44  29 S6        30.15F
HOLLOMAN AFB   CLEAR     74  44  33 S5        30.10F
ALAMOGORDO     CLEAR     77  45  31 SE8       30.12F
T OR C         CLEAR     73  43  33 W5        30.16F

$$
NMZ519>523-251000-
CENTRAL VALLEYS/CENTRAL HIGHLANDS

CITY           SKY/WX    TMP DP  RH WIND       PRES   REMARKS
ALBUQUERQUE    PTCLDY    73  42  32 SE7       30.20F
MORIARTY ARPT  FAIR      55  44  67 W3        30.28S
CLINES CORNERS CLEAR     66  40  38 SW14      30.31F
BELEN          FAIR      71  43  36 SW5       30.19S
SOCORRO        FAIR      71  41  34 S8        30.16F

$$
NMZ524>526-539-540-251000-
SOUTHCENTRAL MOUNTAINS

CITY           SKY/WX    TMP DP  RH WIND       PRES   REMARKS
RUIDOSO        CLEAR     64  43  45 SW9       30.34F

$$
NMZ527>531-251000-
NORTHEAST HIGHLANDS/NORTHEAST PLAINS

CITY           SKY/WX    TMP DP  RH WIND       PRES   REMARKS
LAS VEGAS      CLEAR     62  42  47 S13       30.28F
RATON          NOT AVBL
CLAYTON        PTCLDY    69  47  45 SW9       30.12F

$$
NMZ532>537-251000-
EASTCENTRAL PLAINS

CITY           SKY/WX    TMP DP  RH WIND       PRES   REMARKS
TUCUMCARI      CLEAR     78  50  37 SW10G26   30.08S
CANNON AFB     CLEAR     71  58  62 SW8       30.15F
CLOVIS AIRPORT CLEAR     70  55  60 S7        30.17S

$$
NMZ028-029-538-251000-
SOUTHEAST PLAINS

CITY           SKY/WX    TMP DP  RH WIND       PRES   REMARKS
ROSWELL        CLEAR     73  47  39 S7        30.09F
ARTESIA        CLEAR     73  48  40 S6        30.09F
CARLSBAD       CLEAR     78  50  37 S8        30.07F
HOBBS          CLEAR     73  57  56 SE6       30.13F


$$



USA.gov is the U.S. government's official web portal to all federal, state and local government web resources and services.